Hazard, Kentucky, United States (41701)
Lat: 37.25N, Lon: 83.19W
Wx Zone: KYZ115
Local Info
Past Weather Observations for Wednesday, October 29, 2014

NOTE: This archive is for the closest National Weather Service station to Hazard. Information may differ from the station used for current weather conditions.

Click here for Long-term Archive

Time Weather Temperature Dewpoint Humidity Pressure Winds Precip Visibility
23:53
Clear
46°F / 8°C 36°F / 2°C 66% 30.09 in
(1019 mb)
Calm - 10SM
22:53
Clear
50°F / 10°C 34°F / 1°C 54% 30.09 in
(1019 mb)
NNW 5.8 mph
(NNW 9 kph)
- 10SM
21:53
Clear
52°F / 11°C 36°F / 2°C 54% 30.09 in
(1019 mb)
NW 4.6 mph
(NW 7 kph)
- 10SM
20:53
Clear
52°F / 11°C 36°F / 2°C 54% 30.09 in
(1019 mb)
SSW 3.5 mph
(SSW 6 kph)
- 10SM
19:53
Clear
54°F / 12°C 36°F / 2°C 51% 30.09 in
(1019 mb)
SSW 3.5 mph
(SSW 6 kph)
- 10SM
18:53
Clear
55°F / 13°C 36°F / 2°C 47% 30.09 in
(1019 mb)
W 4.6 mph
(W 7 kph)
- 10SM
17:53
Clear
55°F / 13°C 34°F / 1°C 44% 30.06 in
(1018 mb)
W 6.9 mph
(W 11 kph)
- 10SM
16:53
Clear
59°F / 15°C 30°F / -1°C 34% 30.06 in
(1018 mb)
NW 8.1 mph
(NW 13 kph)
- 10SM
15:53
Clear
61°F / 16°C 34°F / 1°C 36% 30.04 in
(1017 mb)
Variable 5.8 mph
(Variable 9 kph)
- 10SM
14:53
Clear
63°F / 17°C 34°F / 1°C 34% 30.06 in
(1018 mb)
WNW 9.2 mph
(WNW 15 kph)
- 10SM
13:53
Clear
63°F / 17°C 36°F / 2°C 37% 30.06 in
(1018 mb)
NW 10.4 mph
(NW 17 kph)
- 10SM
12:53
Partly Cloudy
61°F / 16°C 39°F / 4°C 45% 30.06 in
(1018 mb)
NW 6.9 mph
(NW 11 kph)
- 10SM
11:53
Clear
59°F / 15°C 46°F / 8°C 63% 30.09 in
(1019 mb)
Calm - 10SM
10:53
Partly Cloudy
54°F / 12°C 48°F / 9°C 82% 30.12 in
(1020 mb)
Variable 3.5 mph
(Variable 6 kph)
- 10SM
10:19
Overcast
52°F / 11°C 48°F / 9°C 88% 30.12 in
(1020 mb)
Variable 3.5 mph
(Variable 6 kph)
- 10SM
10:00
Mostly Cloudy
52°F / 11°C 48°F / 9°C 88% 30.12 in
(1020 mb)
Calm - 10SM
09:53
Overcast
52°F / 11°C 48°F / 9°C 88% 30.12 in
(1020 mb)
Calm - 10SM
08:53
Overcast
50°F / 10°C 48°F / 9°C 94% 30.12 in
(1020 mb)
Variable 3.5 mph
(Variable 6 kph)
- 10SM
08:16
Overcast
Fog And Mist
50°F / 10°C 48°F / 9°C 94% 30.12 in
(1020 mb)
Calm - 3SM
08:11
Overcast
Fog And Mist
48°F / 9°C 48°F / 9°C 100% 30.12 in
(1020 mb)
Calm - 1 3/4SM
07:53
Overcast
Fog
48°F / 9°C 48°F / 9°C 100% 30.12 in
(1020 mb)
Variable 3.5 mph
(Variable 6 kph)
- 1/4SM
07:43
Overcast
Fog
48°F / 9°C 48°F / 9°C 100% 30.09 in
(1019 mb)
Variable 3.5 mph
(Variable 6 kph)
- 1/4SM
07:33
Overcast
Fog And Mist
48°F / 9°C 46°F / 8°C 94% 30.09 in
(1019 mb)
Calm - 1 1/2SM
07:22
Overcast
Fog And Mist
48°F / 9°C 46°F / 8°C 94% 30.09 in
(1019 mb)
Variable 3.5 mph
(Variable 6 kph)
- 5SM
06:53
Overcast
Fog And Mist
48°F / 9°C 46°F / 8°C 94% 30.09 in
(1019 mb)
Calm 0.00 in
(0.00 mm)
4SM
06:44
Overcast
Fog And Mist
48°F / 9°C 46°F / 8°C 94% 30.09 in
(1019 mb)
Calm 0.00 in
(0.00 mm)
4SM
06:42
Overcast
Fog And Mist
48°F / 9°C 46°F / 8°C 94% 30.09 in
(1019 mb)
Variable 3.5 mph
(Variable 6 kph)
0.00 in
(0.00 mm)
1 3/4SM
06:29
Overcast
Fog And Mist
48°F / 9°C 46°F / 8°C 94% 30.09 in
(1019 mb)
Calm 0.00 in
(0.00 mm)
3/4SM
06:21
Overcast
Fog And Mist
48°F / 9°C 46°F / 8°C 94% 30.09 in
(1019 mb)
Calm 0.00 in
(0.00 mm)
1SM
06:10
Overcast
Fog
48°F / 9°C 46°F / 8°C 94% 30.09 in
(1019 mb)
Calm 0.00 in
(0.00 mm)
1/2SM
05:53
Overcast
Light Rain
48°F / 9°C 46°F / 8°C 94% 30.12 in
(1020 mb)
Variable 3.5 mph
(Variable 6 kph)
0.05 in
(1.27 mm)
1SM
05:49
Overcast
Light Rain
48°F / 9°C 48°F / 9°C 100% 30.12 in
(1020 mb)
Calm 0.05 in
(1.27 mm)
1SM
05:47
Overcast
Light Rain
48°F / 9°C 48°F / 9°C 100% 30.12 in
(1020 mb)
Calm 0.05 in
(1.27 mm)
1 3/4SM
05:43
Overcast
Light Rain
48°F / 9°C 46°F / 8°C 94% 30.12 in
(1020 mb)
Calm 0.05 in
(1.27 mm)
4SM
05:36
Overcast
Light Rain
48°F / 9°C 46°F / 8°C 94% 30.12 in
(1020 mb)
Calm 0.04 in
(1.02 mm)
2SM
05:27
Overcast
Light Rain
48°F / 9°C 46°F / 8°C 94% 30.12 in
(1020 mb)
Calm 0.03 in
(0.76 mm)
1 1/2SM
05:24
Overcast
Light Rain
48°F / 9°C 46°F / 8°C 94% 30.12 in
(1020 mb)
Calm 0.03 in
(0.76 mm)
2SM
05:19
Overcast
Light Rain
48°F / 9°C 48°F / 9°C 100% 30.12 in
(1020 mb)
Calm 0.02 in
(0.51 mm)
1SM
05:12
Overcast
Rain
48°F / 9°C 48°F / 9°C 100% 30.12 in
(1020 mb)
Calm 0.02 in
(0.51 mm)
2SM
04:53
Overcast
Light Rain
50°F / 10°C 48°F / 9°C 94% 30.12 in
(1020 mb)
Calm 0.00 in
(0.00 mm)
9SM
04:08
Overcast
48°F / 9°C 48°F / 9°C 100% 30.09 in
(1019 mb)
Calm - 9SM
04:00
Overcast
Fog And Mist
48°F / 9°C 48°F / 9°C 100% 30.09 in
(1019 mb)
Calm - 2 1/2SM
03:53
Overcast
Fog And Mist
50°F / 10°C 48°F / 9°C 94% 30.09 in
(1019 mb)
Calm - 1 3/4SM
03:46
Overcast
Fog And Mist
48°F / 9°C 48°F / 9°C 100% 30.09 in
(1019 mb)
Calm - 5SM
03:26
Overcast
Fog And Mist
50°F / 10°C 48°F / 9°C 94% 30.09 in
(1019 mb)
Calm - 3SM
03:18
Overcast
Fog And Mist
50°F / 10°C 48°F / 9°C 94% 30.09 in
(1019 mb)
Calm - 1 3/4SM
03:03
Overcast
50°F / 10°C 48°F / 9°C 94% 30.09 in
(1019 mb)
Calm - 7SM
02:53
Overcast
Fog And Mist
50°F / 10°C 48°F / 9°C 94% 30.09 in
(1019 mb)
Calm 0.01 in
(0.25 mm)
6SM
02:28
Overcast
Fog And Mist
50°F / 10°C 48°F / 9°C 94% 30.09 in
(1019 mb)
Calm 0.01 in
(0.25 mm)
5SM
02:22
Overcast
Fog And Mist
50°F / 10°C 48°F / 9°C 94% 30.09 in
(1019 mb)
Calm 0.01 in
(0.25 mm)
1SM
02:15
Overcast
Fog And Mist
50°F / 10°C 48°F / 9°C 94% 30.09 in
(1019 mb)
Calm 0.01 in
(0.25 mm)
2 1/2SM
02:08
Overcast
Light Rain
50°F / 10°C 46°F / 8°C 88% 30.09 in
(1019 mb)
SE 4.6 mph
(SE 7 kph)
0.01 in
(0.25 mm)
10SM
02:01
Overcast
Light Rain
50°F / 10°C 46°F / 8°C 88% 30.09 in
(1019 mb)
SE 3.5 mph
(SE 6 kph)
0.01 in
(0.25 mm)
2 1/2SM
01:53
Overcast
Light Rain
50°F / 10°C 48°F / 9°C 94% 30.09 in
(1019 mb)
Calm 0.03 in
(0.76 mm)
1 1/4SM
01:51
Overcast
Light Rain
50°F / 10°C 48°F / 9°C 94% 30.09 in
(1019 mb)
Calm 0.03 in
(0.76 mm)
1 1/2SM
01:16
Overcast
Light Rain
50°F / 10°C 48°F / 9°C 94% 30.09 in
(1019 mb)
Calm 0.00 in
(0.00 mm)
3SM
01:06
Overcast
Light Rain
50°F / 10°C 48°F / 9°C 94% 30.09 in
(1019 mb)
Calm 0.00 in
(0.00 mm)
1 3/4SM
00:53
Overcast
Light Rain
50°F / 10°C 46°F / 8°C 88% 30.09 in
(1019 mb)
S 3.5 mph
(S 6 kph)
0.19 in
(4.83 mm)
9SM
00:34
Overcast
Light Rain
50°F / 10°C 46°F / 8°C 88% 30.09 in
(1019 mb)
Variable 4.6 mph
(Variable 7 kph)
0.17 in
(4.32 mm)
5SM
00:24
Overcast
Heavy Rain
50°F / 10°C 46°F / 8°C 88% 30.09 in
(1019 mb)
NW 4.6 mph
(NW 7 kph)
0.15 in
(3.81 mm)
2SM
00:13
Overcast
Rain
52°F / 11°C 48°F / 9°C 88% 30.09 in
(1019 mb)
WNW 4.6 mph
(WNW 7 kph)
0.08 in
(2.03 mm)
4SM
00:05
Overcast
Heavy Rain
52°F / 11°C 48°F / 9°C 88% 30.09 in
(1019 mb)
Variable 3.5 mph
(Variable 6 kph)
0.07 in
(1.78 mm)
2 1/2SM
Time Weather Temperature Dewpoint Humidity Pressure Winds Precip Visibility


Weather for websites

WeatherForYou.com, LLC is not responsible for any damages or problems caused by this service. Current weather conditions are obtained from the closest station including government and personal stations which may have varying degrees of accuracy. Weather forecasts are derived from the NOAA NDFD. Like all things, this site belongs to Jesus Christ... He just trusts me to maintain it. If you have any questions or comments email webmaster@weatherforyou.com

Copyright © 2014, WeatherForYou.com LLC. All rights reserved.